Date String (YYYY-MM-DD hh:mm:ss) UTC,Instrument flags,absolute air pressure of the measurement (hPa),sample flow rate (lpm),inlet stack bypass flow (lpm),air temperature of the measurement (°C),ambient temperature measured by the external sensor (°C),aerosol sample conditioner tube jacket temperature (°C),OPC LED temperature (°C),internal box temperature (°C),relative humidity of the measurement (%),span deviation,mass concentration of particles derived from Lorenz-Mie calculation of OPC scattering (μg/m³),mass concentration of particles derived from Lorenz-Mie calculation of OPC scattering (μg/m³),mass concentration of particles derived from Lorenz-Mie calculation of OPC scattering (μg/m³)
DateTimeUTC,F1_M11,P_M11,Q1_M11,Q2_M11,T1_M11,T2_M11,T3_M11,T4_M11,T5_M11,U1_M11,ZSPAN_M11,X0_M11,X2_M11,X1_M11
2024-01-08 19:00:00,SystemResetWarning,0823.0,5.01,000.00,019.9,019.4,000.0,028.2,021.4,11.1,0000.0,0006.95,0002.65,0002.18
2024-01-08 19:01:00,SystemResetWarning,0823.0,5.01,000.00,020.0,019.4,000.0,028.2,021.4,11.0,0000.0,0007.12,0002.67,0002.16
2024-01-08 19:02:00,SystemResetWarning,0823.0,4.99,000.00,020.0,019.4,000.0,028.2,021.4,10.9,0000.0,0007.17,0002.66,0002.16
2024-01-08 19:03:00,SystemResetWarning,0822.8,4.99,000.00,020.0,019.4,000.0,028.2,021.4,10.9,0000.0,0007.11,0002.68,0002.16
2024-01-08 19:04:00,SystemResetWarning,0822.9,5.00,000.00,020.0,019.4,000.0,028.2,021.4,10.9,0000.0,0007.20,0002.69,0002.15
2024-01-08 19:05:00,SystemResetWarning,0822.9,5.02,000.00,020.0,019.4,000.0,028.2,021.4,10.9,0000.0,0006.45,0002.65,0002.13
2024-01-08 19:06:00,SystemResetWarning,0822.9,5.01,000.00,020.0,019.4,000.0,028.2,021.4,10.8,0000.0,0006.77,0002.65,0002.11
2024-01-08 19:07:00,SystemResetWarning,0822.9,4.98,000.00,020.0,019.5,000.0,028.3,021.4,10.7,0000.0,0006.84,0002.63,0002.09
2024-01-08 19:08:00,SystemResetWarning,0823.1,5.00,000.00,020.0,019.5,000.0,028.3,021.4,10.7,0000.0,0006.72,0002.63,0002.08
2024-01-08 19:09:00,SystemResetWarning,0823.3,5.01,000.00,020.0,019.5,000.0,028.3,021.4,10.7,0000.0,0006.70,0002.62,0002.06
2024-01-08 19:10:00,SystemResetWarning,0822.9,5.01,000.00,020.0,019.5,000.0,028.3,021.4,10.7,0000.0,0006.88,0002.60,0002.05
2024-01-08 19:11:00,SystemResetWarning,0822.8,4.99,000.00,020.0,019.5,000.0,028.3,021.4,10.8,0000.0,0007.50,0002.56,0002.04
2024-01-08 19:12:00,SystemResetWarning,0822.8,4.99,000.00,020.1,019.5,000.0,028.3,021.4,10.8,0000.0,0007.43,0002.55,0002.03
2024-01-08 19:13:00,SystemResetWarning,0822.7,5.00,000.00,020.1,019.5,000.0,028.3,021.4,10.7,0000.0,0007.73,0002.52,0002.01
2024-01-08 19:14:00,SystemResetWarning,0822.8,5.01,000.00,020.1,019.5,000.0,028.3,021.4,10.7,0000.0,0007.96,0002.51,0001.99
2024-01-08 19:15:00,SystemResetWarning,0822.7,5.01,000.00,020.1,019.5,000.0,028.3,021.4,10.8,0000.0,0007.83,0002.44,0001.98
2024-01-08 19:16:00,SystemResetWarning,0822.9,5.00,000.00,020.1,019.5,000.0,028.3,021.4,10.7,0000.0,0007.74,0002.43,0001.97
2024-01-08 19:17:00,SystemResetWarning,0822.7,4.99,000.00,020.1,019.5,000.0,028.3,021.4,10.6,0000.0,0007.52,0002.38,0001.94
2024-01-08 19:18:00,SystemResetWarning,0822.8,4.99,000.00,020.1,019.5,000.0,028.3,021.5,10.5,0000.0,0005.81,0002.34,0001.89
2024-01-08 19:19:00,SystemResetWarning,0822.7,5.00,000.00,020.1,019.5,000.0,028.4,021.5,10.7,0000.0,0005.71,0002.27,0001.83
2024-01-08 19:20:00,SystemResetWarning,0822.6,5.01,000.00,020.1,019.5,000.0,028.4,021.5,10.8,0000.0,0005.71,0002.25,0001.75
2024-01-08 19:21:00,SystemResetWarning,0822.6,5.01,000.00,020.1,019.5,000.0,028.4,021.5,10.8,0000.0,0005.46,0002.19,0001.69
2024-01-08 19:22:00,SystemResetWarning,0822.6,5.00,000.00,020.1,019.5,000.0,028.4,021.5,10.6,0000.0,0004.49,0002.15,0001.61
2024-01-08 19:23:00,SystemResetWarning,0822.5,4.99,000.00,020.1,019.5,000.0,028.4,021.5,10.5,0000.0,0005.07,0002.07,0001.54
2024-01-08 19:24:00,SystemResetWarning,0822.6,4.99,000.00,020.1,019.5,000.0,028.4,021.5,10.6,0000.0,0005.56,0001.99,0001.46
2024-01-08 19:25:00,SystemResetWarning,0822.6,5.00,000.00,020.2,019.6,000.0,028.4,021.5,10.5,0000.0,0004.77,0001.94,0001.36
2024-01-08 19:26:00,SystemResetWarning,0822.7,5.00,000.00,020.2,019.6,000.0,028.4,021.5,10.5,0000.0,0005.15,0001.87,0001.27
2024-01-08 19:27:00,SystemResetWarning,0822.6,5.00,000.00,020.2,019.6,000.0,028.4,021.6,10.5,0000.0,0005.53,0001.80,0001.20
2024-01-08 19:28:00,SystemResetWarning,0822.6,5.00,000.00,020.2,019.6,000.0,028.4,021.6,10.4,0000.0,0006.28,0001.74,0001.15
2024-01-08 19:29:00,SystemResetWarning,0822.7,5.00,000.00,020.2,019.6,000.0,028.4,021.6,10.3,0000.0,0007.40,0001.75,0001.12
2024-01-08 19:30:00,SystemResetWarning,0822.7,5.00,000.00,020.2,019.6,000.0,028.4,021.6,10.2,0000.0,0007.48,0001.77,0001.10
2024-01-08 19:31:00,SystemResetWarning,0822.7,5.00,000.00,020.2,019.6,000.0,028.5,021.6,10.1,0000.0,0007.51,0001.70,0001.08
2024-01-08 19:32:00,SystemResetWarning,0822.6,5.00,000.00,020.2,019.7,000.0,028.5,021.6,10.1,0000.0,0007.54,0001.70,0001.07
2024-01-08 19:33:00,SystemResetWarning,0822.6,5.00,000.00,020.2,019.7,000.0,028.5,021.7,10.1,0000.0,0009.15,0001.66,0001.05
2024-01-08 19:34:00,SystemResetWarning,0823.0,5.00,000.00,020.2,019.7,000.0,028.5,021.7,10.2,0000.0,0009.36,0001.66,0001.04
2024-01-08 19:35:00,SystemResetWarning,0823.1,5.00,000.00,020.3,019.7,000.0,028.5,021.6,10.2,0000.0,0008.99,0001.68,0001.05
2024-01-08 19:36:00,SystemResetWarning,0822.7,4.99,000.00,020.3,019.7,000.0,028.5,021.7,10.2,0000.0,0008.86,0001.62,0001.05
2024-01-08 19:37:00,SystemResetWarning,0822.8,4.99,000.00,020.3,019.7,000.0,028.5,021.7,10.2,0000.0,0008.64,0001.60,0001.04
2024-01-08 19:38:00,SystemResetWarning,0823.1,5.01,000.00,020.3,019.7,000.0,028.5,021.7,10.4,0000.0,0008.41,0001.59,0001.03
2024-01-08 19:39:00,SystemResetWarning,0823.1,5.00,000.00,020.3,019.7,000.0,028.5,021.7,10.4,0000.0,0007.95,0001.58,0001.03
2024-01-08 19:40:00,SystemResetWarning,0823.1,5.00,000.00,020.3,019.7,000.0,028.5,021.7,10.3,0000.0,0007.60,0001.63,0001.03
2024-01-08 19:41:00,SystemResetWarning,0823.0,5.00,000.00,020.3,019.8,000.0,028.6,021.7,10.4,0000.0,0007.96,0001.65,0001.04
2024-01-08 19:42:00,SystemResetWarning,0823.0,5.01,000.00,020.3,019.8,000.0,028.6,021.8,10.3,0000.0,0007.92,0001.66,0001.04
2024-01-08 19:43:00,SystemResetWarning,0823.1,5.00,000.00,020.3,019.8,000.0,028.6,021.8,10.3,0000.0,0007.93,0001.67,0001.04
2024-01-08 19:44:00,SystemResetWarning,0823.1,5.00,000.00,020.3,019.8,000.0,028.6,021.8,10.3,0000.0,0005.31,0001.66,0001.05
2024-01-08 19:45:00,SystemResetWarning,0823.1,5.00,000.00,020.4,019.7,000.0,028.6,021.8,10.5,0000.0,0004.18,0001.69,0001.05
2024-01-08 19:46:00,SystemResetWarning,0823.0,5.00,000.00,020.4,019.8,000.0,028.6,021.8,10.7,0000.0,0004.23,0001.67,0001.04
2024-01-08 19:47:00,SystemResetWarning,0823.0,5.00,000.00,020.4,019.8,000.0,028.6,021.8,10.7,0000.0,0004.37,0001.69,0001.03
2024-01-08 19:48:00,SystemResetWarning,0822.6,5.00,000.00,020.4,019.8,000.0,028.6,021.8,10.7,0000.0,0004.43,0001.68,0001.03
2024-01-08 19:49:00,SystemResetWarning,0822.8,5.00,000.00,020.4,019.8,000.0,028.6,021.8,10.6,0000.0,0004.53,0001.70,0001.03
2024-01-08 19:50:00,SystemResetWarning,0823.0,4.99,000.00,020.4,019.8,000.0,028.6,021.8,10.4,0000.0,0004.80,0001.71,0001.02
2024-01-08 19:51:00,SystemResetWarning,0823.1,5.00,000.00,020.4,019.8,000.0,028.7,021.8,10.3,0000.0,0004.52,0001.60,0001.00
2024-01-08 19:52:00,SystemResetWarning,0823.0,4.99,000.00,020.5,019.8,000.0,028.7,021.9,10.3,0000.0,0003.45,0001.52,0000.99
2024-01-08 19:53:00,SystemResetWarning,0822.7,5.00,000.00,020.5,019.8,000.0,028.7,021.9,10.3,0000.0,0003.38,0001.50,0000.99
2024-01-08 19:54:00,SystemResetWarning,0822.8,5.00,000.00,020.5,019.8,000.0,028.7,021.9,10.3,0000.0,0003.30,0001.48,0000.98
2024-01-08 19:55:00,SystemResetWarning,0822.6,5.01,000.00,020.5,019.8,000.0,028.7,021.9,10.3,0000.0,0003.33,0001.49,0000.97
2024-01-08 19:56:00,SystemResetWarning,0822.5,5.01,000.00,020.5,019.8,000.0,028.7,021.9,10.3,0000.0,0003.25,0001.44,0000.96
2024-01-08 19:57:00,SystemResetWarning,0822.7,5.00,000.00,020.5,019.9,000.0,028.7,021.9,10.2,0000.0,0003.91,0001.40,0000.94
2024-01-08 19:58:00,SystemResetWarning,0822.5,4.99,000.00,020.5,019.9,000.0,028.7,021.9,10.2,0000.0,0004.17,0001.38,0000.94
2024-01-08 19:59:00,SystemResetWarning,0822.6,4.99,000.00,020.5,019.9,000.0,028.7,021.9,10.2,0000.0,0004.28,0001.42,0000.96
